Simultaneous Nadir Overpasses (SNOs) Predictions

Prediction of SNOs between AQUA and GOES-15 Satellite Orbit:

Table of predicted SNOs for the next 14.0 days since TLE Epoch: 3/9/2012
Index Date Time (AQUA) AQUA Lat,Lon GOES-15 Lat,Lon Distance(km) Time Diff (sec)
1 03/09/2012 22:28:59 0.37,-133.43 -0.05,-135.39 222.86 80
2 03/10/2012 10:50:14 0.73,-138.58 0.05,-135.37 365.14 80
3 03/12/2012 10:38:00 0.14,-135.60 0.05,-135.34 30.97 80
4 03/14/2012 10:25:47 -0.54,-132.64 0.05,-135.30 303.02 80
5 03/14/2012 22:47:10 -0.59,-137.82 -0.05,-135.30 286.72 80
6 03/16/2012 22:34:56 0.05,-134.86 -0.06,-135.26 46.85 80
7 03/18/2012 22:22:41 0.66,-131.88 -0.06,-135.22 380.31 80
8 03/19/2012 10:43:56 0.42,-137.03 0.06,-135.20 208.06 80
9 03/21/2012 10:31:40 -0.15,-134.04 0.06,-135.15 125.38 80
10 03/21/2012 22:53:03 -0.89,-139.24 -0.05,-135.15 464.54 80
11 03/23/2012 10:19:25 -0.81,-131.07 0.06,-135.10 458.43 80




NCC Satellite Simultaneous Nadir Overpasses (SNOs) Prediction Service
